DELTA 1 DEB, 29184

Orbit data source: Space-Track

DELTA 1 DEB, 29184 is space debris in LEO originally from a launch on Thu, 11 Jan 1968 UTC launched from the Air Force Western Test Range (AFWTR). Debris objects in space refer to the collection of defunct objects orbiting the Earth. Examples of debris include non-operational satellites, rocket bodies, and fragments generated from explosions, collisions, or faulty payload assembly.

Loading next visibility...
Identifier
29184, 1968-002H
Orbit
LEO
Country
Flag of USUS
Related business
Manufacturer
Unknown
Mission
Spacecraft
Bus & Motor
Unknown
Mass
Unknown
Launch date (UTC)
1968-01-11 (58 years ago)
Launch vehicle
Unknown
Launch site
Air Force Western Test Range (AFWTR)
Object type
Payload
Rocket body
Debris
Shape & HBR
Unknown shape, 0.1 m
Radar Cross Section
Small (<0.1 m²)

Expand to show TLE details & history
Last TLE update: 1 month ago

TLE from 1 month ago
0 DELTA 1 DEB
1 29184U 68002H   25361.18655182  .00001072  00000-0  25524-2 0  9993
2 29184 105.8295 325.8327 0255406 160.4081 200.7037 13.16549697535911
Epoch: 2025-12-27T04:28Z
TLE epoch observation values (Epoch: 2025-12-27T04:28:38.077Z)
Latitude
0.00001°
Longitude
162.75755°
Altitude
1,382.027 km
Speed
7.082 km/s
True Right ascension
21h 43m 19s
True Declination
0° 00' 00"
Sunlit
Object was in daylight at epoch
Visualization orbit readout
Latitude
Unknown
Longitude
Unknown
Altitude
Unknown
Speed
Unknown
Apparent Right ascension
Unknown
Apparent Declination
Unknown
Sunlit
N/A
Visualization observer readout
Local Sidereal Time
01:42:27
Azimuth
Unknown
Elevation
Unknown
Doppler factor
Unknown
Orbital elements
Apogee altitude
1,389.112 km
Perigee altitude
1,002.233 km
Semi-major axis
7,573.81 km
Eccentricity
0.02554
Inclination
105.8295°
RAAN
325.8327°
Arg. of periapsis
160.4081°
True anomaly
199.69908°
Mean anomaly
200.7037°
Eccentric anomaly
200.19844°
Mean motion
3.29285 °/min
Orbital period
109.33 mins
BSTAR
0.0025524
Loading maneuver chart data...
Computing Atmospheric mass density...
Loading historical data...
Loading historical data...
Loading historical data...
Loading historical data...
Loading historical data...
Loading historical data...
Loading historical data...

Documentation

Showing up to 5 results
|